Regional Weather Roundup
Issued by NWS

Home | Current Version | Previous Version | Graphics & Text | Print | Product List | Glossary On
Versions: 1 2 3 4 5 6 7 8 9 10 11 12 13 14 15 16 17 18 19 20 21 22 23 24 25 26 27 28 29 30 31 32 33 34 35 36 37 38 39 40 41 42 43 44 45 46 47 48 49 50
000
ASUS45 KSLC 280710
RWRUT

UTAH REGIONAL WEATHER ROUNDUP
NATIONAL WEATHER SERVICE SALT LAKE CITY UT
1200 AM MST SAT FEB 28 2015

UTZ001>011-023>025-280800-

NORTHERN UTAH

CITY           SKY/WX    TMP DP  RH WIND       PRES   REMARKS
BRIGHAM CITY   CLEAR     28  24  83 NW5       29.71F WCI  23
HILL AFB       CLEAR     31  19  62 E15       29.69S WCI  20
LOGAN          CLEAR     26  23  88 CALM      29.73S
OGDEN          CLEAR     31  25  78 CALM      29.69S
PROVO AIRPORT  CLEAR     28  21  74 CALM      29.70F
SALT LAKE CITY PTCLDY    32  23  69 SE7       29.69S WCI  26
VERNAL         CLOUDY    29  25  85 N9        29.77S WCI  20
WENDOVER       PTCLDY    37  25  60 N15       29.67S WCI  28
HEBER CITY     CLEAR     19  18  93 CALM      29.72R
WEST JORDAN    CLEAR     28  23  80 CALM      29.70S

$$

UTZ012>022-026-027-280800-

SOUTHERN/CENTRAL UTAH

CITY           SKY/WX    TMP DP  RH WIND       PRES   REMARKS
BLANDING       CLOUDY    30  29  99 CALM      29.85S
BRYCE CANYON   FOG       20  18  92 S6        29.70F VSB 3/4 WCI  12
CEDAR CITY     MOCLDY    31  22  69 CALM      29.62F
DELTA          PTCLDY    31  21  65 NE8       29.65S WCI  24
HANKSVILLE     CLEAR     32  28  86 CALM      29.77S
MILFORD        CLOUDY    30  18  60 NW3       29.62F
MOAB/CYNLANDS  CLEAR     33  24  69 SE5       29.74F WCI  29
PRICE          CLOUDY    30  21  69 VRB3      29.73S
ST GEORGE      CLOUDY    50  30  46 SE14      29.66R
KANAB          CLOUDY    34  34 100 N6        29.73F WCI  29

$$

REGIONAL REPORTS     COLORADO/ARIZONA

CITY           SKY/WX    TMP DP  RH WIND       PRES   REMARKS
CRAIG, CO      CLEAR     19  10  68 E6        29.78S WCI  11
GRAND JUNCTION CLEAR     26  23  88 E12       29.76F WCI  16
RIFLE          PTCLDY    24  18  77 S5        29.79S WCI  18
MONTROSE       CLEAR     19  16  88 S5        29.80S WCI  12
CORTEZ         CLEAR     27  26  96 E3        29.77F
PAGE, AZ       CLOUDY    40  35  83 SE3       29.72F
GRAND CANYON   CLOUDY    34  29  82 NE6       29.69F WCI  29
KINGMAN        PTCLDY    53  36  52 SW18      29.62R
FLAGSTAFF      CLOUDY    37  28  70 SW12      29.72F WCI  29

$$

REGIONAL REPORTS    NEVADA/IDAHO/WYOMING

CITY           SKY/WX    TMP DP  RH WIND       PRES   REMARKS
LAS VEGAS, NV  PTCLDY    57  36  45 S17       29.51S
ELY            LGT SNOW  30  28  92 NE5       29.62S FOG     WCI  25
ELKO           FLURRIES  33  32  96 CALM      29.61S
POCATELLO, ID  CLEAR     22  21  96 NE6       29.74S WCI  14
BURLEY         CLOUDY    32  24  72 E15G23    29.68S WCI  22
EVANSTON, WY   CLEAR     20  14  77 E7        29.69F WCI  11
ROCK SPRINGS   CLOUDY    18  12  77 NE10      29.74S WCI   6

$$



USA.gov is the U.S. government's official web portal to all federal, state and local government web resources and services.